Other Public Products
Issued by NWS Grand Forks, ND

Home | Current Version | Previous Version | Graphics & Text | Print | Product List | Glossary On
Versions: 1 2 3 4 5 6 7 8 9 10 11 12 13 14 15 16 17 18 19 20 21 22 23 24 25 26 27 28 29 30 31 32 33 34 35 36 37 38 39 40 41 42 43 44 45 46 47 48 49 50
000
FPUS83 KFGF 171810
OPUFGF
PRAIRIE TO PINES WEATHER ROUNDUP
NATIONAL WEATHER SERVICE EASTERN NORTH DAKOTA/GRAND FORKS ND
1200 PM CST WED DEC 17 2014

 **SATELLITE DATA USED TO AUGMENT SKY COVER AT AUTOMATED STATIONS**
 *****  WEATHER ACROSS EASTERN NORTH DAKOTA  *****

CITY           SKY/WX    TMP DP  RH WIND       PRES   REMARKS
GRAND FORKS    FAIR      12   7  80 N3        30.38F
6HR MIN TEMP:  -1; 6HR MAX TEMP:  12;

GRAND FORKS AF MOSUNNY   12  11  93 VRB2      30.37F
GRAND CITY NWS NOT AVBL
BUXTON         NOT AVBL
DEVILS LAKE    FAIR      10   1  67 CALM      30.30F
6HR MIN TEMP:  -2; 6HR MAX TEMP:  10;

FARGO          FAIR     N/A N/A N/A MISG      30.37F HAZE
6HR MIN TEMP:   2; 6HR MAX TEMP:  13;

WAHPETON ARPT  MOCLDY    12   9  85 CALM      30.37F
$$

 *****  WEATHER ACROSS CENTRAL AND WESTERN NORTH DAKOTA  *****

CITY           SKY/WX    TMP DP  RH WIND       PRES   REMARKS
JAMESTOWN      FAIR      12   7  80 CALM      30.30F
6HR MIN TEMP:  -3; 6HR MAX TEMP:  12;

BISMARCK       CLOUDY    15   9  76 S7        30.27F WCI   5
6HR MIN TEMP:  13; 6HR MAX TEMP:  15; 6HR PCP: TRACE;

MINOT          FAIR      15   9  76 S12       30.23F WCI   2
6HR MIN TEMP:   5; 6HR MAX TEMP:  15; 6HR PCP: TRACE;

MINOT AFB      CLOUDY    16  12  86 SE9       30.23F WCI   4
                                      6HR PCP: TRACE;

GARRISON         N/A     15  11  83 S14       30.21F WCI   0
6HR MIN TEMP:  14; 6HR MAX TEMP:  16;

WILLISTON      CLOUDY    19  12  74 SE13G18   30.15F WCI   6
6HR MIN TEMP:  17; 6HR MAX TEMP:  19; 6HR PCP: TRACE;

DICKINSON      LGT SNOW  18  12  77 SE17      30.10F WCI   3
6HR MIN TEMP:  15; 6HR MAX TEMP:  18; 6HR PCP: TRACE;

HETTINGER      CLOUDY    15  13  91 SE13      30.12F WCI   1
6HR MIN TEMP:  14; 6HR MAX TEMP:  15; 6HR PCP: TRACE;

$$

 *****  OTHER OBSERVATIONS NORTHEAST NORTH DAKOTA  *****

CITY           SKY/WX    TMP DP  RH WIND       PRES   REMARKS
WALHALLA         N/A     10  10 100 CALM      30.37F
LANGDON        FAIR      12   7  79 CALM      30.30F
CAVALIER       FAIR      12   7  79 CALM      30.38F
GRAFTON        NOT AVBL
CANDO          MOCLDY    10   7  85 S3        30.31F
FORT TOTTEN      N/A     14   8  76 W2        29.95
ROLLA          MOCLDY     9   9 100 SW5       30.28F WCI   0
RUGBY          FAIR      12  10  92 SE7       30.29F WCI   2
 ***** THE ABOVE OBSERVATIONS ARE NON NWS ARE NOT QUALITY
        CONTROLLED AND MAY MIS-REPORT RAIN FOR SNOW...
$$

 *****  OTHER OBSERVATIONS SOUTHEAST NORTH DAKOTA *****

CITY           SKY/WX    TMP DP  RH WIND       PRES   REMARKS
COOPERSTOWN    NOT AVBL
VALLEY CITY    FAIR      14  14 100 CALM      30.32S
OAKES            N/A     14  10  85 N3        30.32F
GWINNER        PTCLDY    16  12  86 MISG      30.35F
SHEYENNE NWR     N/A     16   8  71 CALM      29.95S
BUFFALO        NOT AVBL
WYNDMERE         N/A     16  10  79 N5          N/A  WCI   9
 ***** THE ABOVE OBSERVATIONS ARE NON NWS ARE NOT QUALITY
       CONTROLLED AND MAY MIS-REPORT RAIN FOR SNOW...
$$

  *****  WEATHER ACROSS NORTHERN MINNESOTA  *****

CITY           SKY/WX    TMP DP  RH WIND       PRES   REMARKS
FLAG ISLAND    FAIR      10   7  85 NW6       30.34S WCI   1
WARROAD        FAIR      10   7  85 NE5       30.36R WCI   2
ROSEAU         FAIR      12   7  79 E5        30.34F WCI   4
HALLOCK        FAIR      10   7  85 CALM      30.38S
THF RVR FALLS  CLOUDY    12   9  85 CALM      30.34F
6HR MIN TEMP:   3; 6HR MAX TEMP:  12;

HALSTAD          N/A     13   7  76 NW3         N/A
FOSSTON        CLOUDY    10   9  92 CALM      30.32F
BAUDETTE       CLOUDY    16   8  71 CALM      30.32F
6HR MIN TEMP:   9; 6HR MAX TEMP:  16;

WASKISH        FAIR      19  12  73 CALM      30.31F
CROOKSTON      LGT SNOW  10   9  92 NW5       30.38F WCI   2
$$
  *****  WEATHER ACROSS CENTRAL AND WEST MINNESOTA  *****

CITY           SKY/WX    TMP DP  RH WIND       PRES   REMARKS
BEMIDJI        FAIR      17  10  76 CALM      30.28F
PARK RAPIDS    FAIR      17   9  70 CALM      30.28S
6HR MIN TEMP:   2; 6HR MAX TEMP:  17;

WADENA         FAIR      12   7  79 NW5       30.29F WCI   4
DETROIT LAKES  LGT SNOW  10   9  92 NW7       30.32S WCI   0
MOORHEAD       LGT SNOW  12  10  92 NW5       30.38S WCI   4
FERGUS FALLS   FLURRIES   9   3  78 NW8       30.39S WCI  -4
ELBOW LAKE     FLURRIES   9   7  91 NW7       30.33F WCI  -2
6HR MIN TEMP:   0; 6HR MAX TEMP:   9;

MORRIS MN      FAIR      12   9  85 NW10      30.33F WCI  -1
STAPLES        LGT SNOW  12   9  85 CALM      30.29F
WHEATON        FAIR       9   7  92 N6        30.37F WCI  -1
$$
  *****  WEATHER ELSEWHERE ACROSS MINNESOTA  *****

CITY           SKY/WX    TMP DP  RH WIND       PRES   REMARKS
DULUTH         FAIR      16   8  71 N9        30.22S WCI   4
6HR MIN TEMP:  10; 6HR MAX TEMP:  16; 6HR PCP: TRACE;

INTRNTL FALLS  FAIR      16   6  65 N9        30.31F WCI   4
6HR MIN TEMP:  10; 6HR MAX TEMP:  16;

ELY            FAIR      16  10  79 NE5       30.24F WCI   9
CLOQUET        FLURRIES  16   9  73 N8        30.25S WCI   5
BRAINERD       LGT SNOW  14   9  80 N5        30.29S WCI   6
6HR MIN TEMP:   7; 6HR MAX TEMP:  15; 6HR PCP: TRACE;

HIBBING        FAIR      18   9  68 N10       30.25F WCI   6
6HR MIN TEMP:  11; 6HR MAX TEMP:  18; 6HR PCP: TRACE;

ALEXANDRIA     FAIR      14   9  80 W7        30.30F WCI   4
6HR MIN TEMP:   4; 6HR MAX TEMP:  14;

SAINT CLOUD    PTSUNNY   17   8  67 W8        30.31S WCI   7
6HR MIN TEMP:   8; 6HR MAX TEMP:  17;

MINNEAPOLIS    FAIR      17   9  70 NW8       30.32F WCI   7
6HR MIN TEMP:   9; 6HR MAX TEMP:  17; 6HR PCP: TRACE;

$$

  *****  WEATHER ACROSS SOUTH DAKOTA  *****

CITY           SKY/WX    TMP DP  RH WIND       PRES   REMARKS
SIOUX FALLS    FAIR      17  11  77 CALM      30.31F
6HR MIN TEMP:  -1; 6HR MAX TEMP:  18;

BROOKINGS      NOT AVBL
WATERTOWN      FAIR      16  10  77 CALM      30.28F
6HR MIN TEMP:   0; 6HR MAX TEMP:  16;

HURON          SUNNY      9   5  84 NE5       30.33F FOG     WCI   1
6HR MIN TEMP:  -2; 6HR MAX TEMP:   9;

SISSETON       NOT AVBL
ABERDEEN       MOSUNNY   16  10  77 S3        30.33F
6HR MIN TEMP:   0; 6HR MAX TEMP:  17;

MITCHELL       SUNNY     13  10  88 CALM      30.33F
PIERRE         CLOUDY    17  14  88 SE14      30.22F WCI   3
6HR MIN TEMP:  16; 6HR MAX TEMP:  17;

MOBRIDGE       CLOUDY    18  11  74 SE14      30.23F WCI   4
RAPID CITY     CLOUDY    21  18  88 SE9       30.03F WCI  11
6HR MIN TEMP:  19; 6HR MAX TEMP:  21;

$$

  *****  SOME WEATHER IN NEARBY STATES *****

CITY           SKY/WX    TMP DP  RH WIND       PRES   REMARKS
GLASGOW MT     CLOUDY    19  15  84 E15       30.04F WCI   5
6HR MIN TEMP:  17; 6HR MAX TEMP:  19;

GREAT FALLS MT CLOUDY    32  29  88 SW8       29.89S WCI  25
6HR MIN TEMP:  21; 6HR MAX TEMP:  32;

CHEYENNE WY    CLOUDY    42  24  49 W6        29.94F
6HR MIN TEMP:  29; 6HR MAX TEMP:  42;

SCOTTSBLUFF NE PTSUNNY   22  19  89 E8        30.00F WCI  12
6HR MIN TEMP:  12; 6HR MAX TEMP:  22;

OMAHA NE       PTSUNNY   23  14  68 N5        30.35F WCI  17
6HR MIN TEMP:  17; 6HR MAX TEMP:  23;

DES MOINES IA  PTSUNNY   24  13  62 NW8       30.32F WCI  15
6HR MIN TEMP:  15; 6HR MAX TEMP:  24;

DAVENPORT IA   FAIR      24  15  68 W13       30.29F WCI  12
6HR MIN TEMP:  20; 6HR MAX TEMP:  24;

CHICAGO IL     CLOUDY    26  17  68 W10       30.22F WCI  16
6HR MIN TEMP:  24; 6HR MAX TEMP:  26;

EAU CLAIRE WI  CLOUDY    18  10  71 NW10      30.26F WCI   6
6HR MIN TEMP:  17; 6HR MAX TEMP:  19; 6HR PCP: TRACE;

LA CROSSE WI   FAIR      23  12  62 N10       30.28F WCI  12
6HR MIN TEMP:  20; 6HR MAX TEMP:  23; 6HR PCP: TRACE;

$$

  *****  SOME NATIONAL WEATHER *****

CITY           SKY/WX    TMP DP  RH WIND       PRES   REMARKS



USA.gov is the U.S. government's official web portal to all federal, state and local government web resources and services.